Tracking 25734 objects as of 26-May-2022
HD Live streaming from Space Station
objects crossing your sky now

SL-18 DEB

Track SL-18 DEB now!
10-day predictions


NORAD ID: 22599
Int'l Code: 1993-014E
Perigee: 652.5 km
Apogee: 863.5 km
Inclination: 75.8 °
Period: 99.8 minutes
Semi major axis: 7128 km
RCS: 0.042 m2 (small)
Launch date: March 25, 1993
Source: Commonwealth of Independent States (former USSR) (CIS)
Launch site: PLESETSK MISSILE AND SPACE COMPLEX (PKMTR)

Note: This is SATELLITE DEBRIS
aabbcc
Your satellite tracking list
Your tracking list is empty




NASA's NSSDC Master Catalog

Two Line Element Set (TLE):
1 22599U 93014E   22145.81639692  .00002346  00000-0  62721-3 0  9998
2 22599  75.7565 278.8591 0147973 231.8368 126.9391 14.42322428525056
Source of the keplerian elements: AFSPC